Content
SEND FEEDBACK

Daily
Averages
Monthly
Summary
Czech Republic

BRNO, CZECH REPUBLIC


Home > Europe > Czech Republic
Elevation: 807 feet     Latitude: 49 09N     Longitude: 016 42E

WEATHER
 
SELECT A DAY
Number of Records: 286,112;   Date Range: 2/20/97 - 7/27/14
 
SHARE

PRINT THIS DATA

[ ← Previous Day ]
WEATHER ALMANAC - JULY 23, 2013
[ Next Day → ]
[ °C ]   °F
Weather ElementAverageHighLow
Temperature74.8 °F88 °F (2:00 pm)60.8 °F (4:00 am)
Dewpoint51.3 °F57.2 °F (8:30 pm)46.4 °F (3:30 pm)
Humidity46.8 %72 % (4:00 am)18 % (2:00 pm)
Barometer29.95 in29.98 in (12:30 am)29.88 in (8:00 pm)
Wind Speed5.3 mph10.4 mph (1:30 pm)
Weather ElementAverage
Visibility18.8 mi
Wind DirectionSSE (147.5 °)

Weather ElementTotal
Precipitation---
Cooling Degree Days9.4 (Base 65)
Growing Degree Days24.4 (Base 50)
Averaged from 51 records on July 23, 2013
WEATHER CONDITIONS BREAKOUT
WIND DIRECTION BREAKOUT
WEATHER BY HOUR - JULY 23, 2013
[ °C ]   °F
Local TimeTemperatureDewpointHumidityBarometerVisibilityWind DirectionWind SpeedGust SpeedPrecipitationEventsConditions
12:30 AM66.2 °F53.6 °F64 %29.98 inNNE (30°)8.1 mphClear
1:00 AM64.4 °F53.6 °F68 %29.98 inNorth (350°)4.6 mphClear
1:30 AM64.4 °F51.8 °F64 %29.98 inVariable2.3 mphClear
2:00 AM63.0 °F51.0 °F57 %29.96 in19.0 miENE (60°)2.2 mph
2:00 AM62.6 °F51.8 °F68 %29.98 inVariable2.3 mphClear
2:30 AM62.6 °F51.8 °F68 %29.98 inVariable1.2 mphClear
3:00 AM62.6 °F51.8 °F68 %29.98 inNNW (340°)2.3 mphClear
3:30 AM62.6 °F51.8 °F68 %29.98 inCalmClear
4:00 AM60.8 °F51.8 °F72 %29.98 inCalmClear
4:30 AM60.8 °F51.8 °F72 %29.98 inCalmClear
5:00 AM60.8 °F51.8 °F72 %29.95 inVariable1.2 mphClear
5:30 AM60.8 °F51.8 °F72 %29.95 inCalmClear
6:00 AM60.8 °F51.8 °F72 %29.95 inNE (50°)2.3 mphClear
6:30 AM62.6 °F51.8 °F68 %29.95 inNNW (330°)2.3 mphClear
7:00 AM62.6 °F53.6 °F72 %29.95 inVariable1.2 mphClear
7:30 AM64.4 °F53.6 °F68 %29.95 inVariable2.3 mphClear
8:00 AM69.0 °F54.0 °F48 %29.95 in22.0 miSouth (170°)2.2 mphClear
8:00 AM68.0 °F53.6 °F60 %29.95 inVariable1.2 mphClear
8:30 AM71.6 °F55.4 °F57 %29.98 inVariable2.3 mphClear
9:00 AM73.4 °F53.6 °F50 %29.98 inVariable2.3 mphClear
9:30 AM75.2 °F53.6 °F47 %29.98 in6.2 miWSW (240°)4.6 mphPartly Cloudy
10:00 AM78.8 °F53.6 °F42 %29.95 inWSW (250°)4.6 mphClear
10:30 AM80.6 °F53.6 °F39 %29.95 inWest (260°)5.8 mphClear
11:00 AM82.4 °F51.8 °F35 %29.95 inWest (280°)5.8 mphClear
11:30 AM82.4 °F53.6 °F37 %29.95 inNorth (350°)5.8 mphClear
12:00 PM82.4 °F51.8 °F35 %29.95 inWest (270°)4.6 mphClear
12:30 PM84.2 °F51.8 °F33 %29.95 inVariable5.8 mphClear
1:00 PM86.0 °F50.0 °F29 %29.95 inWNW (300°)6.9 mphClear
1:30 PM86.0 °F50.0 °F29 %29.95 inWNW (300°)10.4 mphClear
2:00 PM88.0 °F50.0 °F18 %29.89 in22.0 miNorth (350°)8.9 mphPartly Cloudy
2:00 PM86.0 °F50.0 °F29 %29.92 inWNW (300°)6.9 mphClear
2:30 PM86.0 °F48.2 °F27 %29.92 inNorth (350°)6.9 mphClear
3:00 PM87.8 °F48.2 °F25 %29.92 inNW (310°)6.9 mphClear
3:30 PM87.8 °F46.4 °F24 %29.92 inNNE (20°)8.1 mphClear
4:00 PM87.8 °F48.2 °F25 %29.92 inNorth (10°)9.2 mphClear
4:30 PM87.8 °F46.4 °F24 %29.92 inNorth (350°)9.2 mphClear
5:00 PM86.0 °F46.4 °F25 %29.92 inNorth (360°)10.4 mphClear
5:30 PM87.8 °F46.4 °F24 %29.92 inNorth (10°)6.9 mphClear
6:00 PM86.0 °F46.4 °F25 %29.92 inNorth (350°)10.4 mphClear
6:30 PM86.0 °F46.4 °F25 %29.92 inNorth (350°)8.1 mphClear
7:00 PM84.2 °F46.4 °F27 %29.92 inNorth (360°)9.2 mphClear
7:30 PM84.2 °F46.4 °F27 %29.92 inNorth (360°)5.8 mphClear
8:00 PM81.0 °F51.0 °F25 %29.88 in25.0 miNE (50°)8.9 mphClear
8:00 PM82.4 °F46.4 °F28 %29.92 inNE (40°)8.1 mphClear
8:30 PM77.0 °F57.2 °F50 %29.92 inENE (60°)9.2 mphClear
9:00 PM75.2 °F55.4 °F50 %29.92 inNE (50°)10.4 mphClear
9:30 PM73.4 °F55.4 °F53 %29.92 inENE (60°)8.1 mphClear
10:00 PM71.6 °F55.4 °F57 %29.95 inENE (60°)5.8 mphClear
10:30 PM69.8 °F53.6 °F56 %29.95 inNE (50°)6.9 mphClear
11:00 PM68.0 °F51.8 °F56 %29.95 inNE (50°)6.9 mphClear
11:30 PM69.8 °F51.8 °F53 %29.98 inNE (40°)6.9 mphClear
Hourly data recorded from LKTB, located miles away from Brno, Czech Republic







STORIES FROM OUR PARTNERS